Flag for Germany Weather past 2 weeks in Lindlar, North Rhine-Westphalia, Germany

Now
48 °F

Overcast.


Feels Like: 44 °F
Forecast: 30 / 50 °F
Wind: 7 mph from West

Location: Koeln / Bonn

Current Time: Mar 27, 2015 at 2:41:47 PM

Latest Report: Mar 27, 2015 at 2:00 PM


Visibility: 25 mi

Pressure: 30.08 "Hg

Humidity: 61%

Dew point: 35 °F

Location of LindlarLocation

Historic Weather in Lindlar — Graph

°F

Lindlar temperature yesterday

Maximum temperature yesterday: 51 °F (at 3:00 PM)
Minimum temperature yesterday: 40 °F (at 8:00 PM)
Average temperature yesterday: 43 °F

Past Weeks' High & Low Weather Summary

 TemperatureHumidityPressure
High66 °F (Mar 17, 5:00 PM)100% (Mar 16, 7:00 AM)30.42 "Hg (Mar 16, 7:00 AM)
Low29 °F (Mar 23, 5:00 AM)32% (Mar 17, 4:00 PM)29.66 "Hg (Mar 25, 3:00 AM)
Average43 °F77%30.14 "Hg
* Reported Mar 12 1:00 PM — Mar 27 1:00 PM, Lindlar, Weather by CustomWeather, © 2015

Note: Actual official high and low records may vary slightly from our data, if they occured in-between our weather recording intervals... More about our weather records

Advertising

Lindlar weather history for previous 24 hours

 ConditionsComfort  
Time TempWeatherWind HumidityBarometerVisibility
1:00 PM
Fri, Mar 27
46 °FOvercast.7 mph68%30.09 "Hg22 mi
12:00 PM45 °FSprinkles. Overcast.8 mph70%30.07 "Hg22 mi
11:00 AM46 °FOvercast.7 mph72%30.05 "Hg16 mi
10:00 AM45 °FOvercast.6 mph76%30.03 "Hg16 mi
9:00 AM43 °FQuite cool.6 mph78%30.01 "HgN/A
8:00 AM42 °FOvercast.6 mph81%29.99 "Hg16 mi
7:00 AM41 °FOvercast.5 mph81%29.96 "Hg19 mi
6:00 AM42 °FOvercast.6 mph80%29.93 "Hg16 mi
5:00 AM42 °FPassing clouds.5 mph81%29.91 "Hg22 mi
4:00 AM43 °FLight rain. Overcast.5 mph82%29.88 "Hg19 mi
3:00 AM44 °FPassing clouds.5 mph81%29.87 "Hg19 mi
2:00 AM44 °FPassing clouds.5 mph87%29.85 "Hg16 mi
1:00 AM44 °FOvercast.2 mph93%29.83 "Hg12 mi
12:00 AM43 °FOvercast.3 mph93%29.81 "Hg16 mi
11:00 PM
Thu, Mar 26
42 °FOvercast.2 mph91%29.80 "Hg11 mi
10:00 PM40 °FLight rain. Overcast.3 mph95%29.80 "Hg19 mi
9:00 PM40 °FLight rain. Overcast.3 mph95%29.79 "Hg6 mi
8:00 PM40 °FLight rain. Overcast.2 mph93%29.78 "Hg7 mi
7:00 PM40 °FLight rain. Overcast.3 mph90%29.78 "Hg7 mi
6:00 PM41 °FLight rain. Overcast.3 mph83%29.78 "Hg7 mi
5:00 PM44 °FLight rain. Overcast.6 mph67%29.77 "Hg19 mi
4:00 PM48 °FLight rain. Overcast.9 mph43%29.74 "Hg28 mi
3:00 PM51 °FLight rain. Overcast.5 mph40%29.73 "Hg31 mi
2:00 PM50 °FOvercast.2 mph48%29.75 "Hg37 mi
Weather by CustomWeather, © 2015

See weather overviewHow to use our weather pages